Temp
-12 -12 -12 -12 -13 -14 -14 -15 -16 -17 -17 -17 -17 -17 -17 -17 -17 -17 -18 -17 -17 -17 -16 -15 -15 -14 -14 -13 -12 -12 -12 -11 -11 -11 -11 -11 -10 -10 -10 -9 -9 -9 -9 -9 -9 -8 -8
-12 -12 -13 -13 -13 -13 -14 -14 -15 -16 -17 -16 -16 -17 -17 -17 -17 -17 -17 -16 -16 -16 -15 -15 -14 -14 -13 -13 -12 -12 -11 -11 -11 -11 -11 -10 -10 -10 -10 -9 -9 -9 -9 -9 -9 -9 -9
-12 -12 -13 -13 -13 -13 -13 -13 -14 -15 -16 -17 -16 -16 -16 -16 -16 -16 -16 -16 -15 -15 -15 -14 -14 -13 -13 -12 -12 -11 -11 -11 -11 -11 -11 -10 -10 -10 -10 -9 -9 -9 -9 -9 -9 -9 -9
-12 -12 -12 -13 -13 -13 -13 -14 -13 -14 -15 -16 -16 -16 -15 -15 -15 -15 -15 -15 -14 -14 -14 -13 -13 -12 -12 -12 -11 -11 -11 -11 -11 -11 -10 -10 -10 -10 -9 -9 -9 -9 -9 -9 -9 -9 -9
-12 -12 -12 -12 -13 -13 -13 -13 -13 -13 -14 -15 -15 -15 -15 -15 -14 -14 -14 -13 -13 -13 -13 -12 -12 -12 -11 -11 -11 -11 -11 -10 -10 -10 -10 -10 -10 -9 -9 -9 -9 -9 -9 -9 -9 -10 -9
-12 -13 -12 -12 -12 -13 -13 -13 -12 -13 -13 -13 -14 -14 -14 -14 -14 -13 -13 -12 -12 -12 -12 -12 -11 -11 -11 -11 -11 -10 -10 -10 -10 -10 -10 -10 -10 -9 -9 -9 -9 -9 -10 -10 -10 -10 -10
-12 -12 -12 -12 -12 -12 -12 -12 -13 -12 -12 -13 -13 -13 -14 -14 -14 -13 -12 -12 -12 -12 -11 -11 -11 -11 -11 -10 -10 -10 -10 -10 -10 -10 -9 -9 -9 -9 -9 -9 -10 -10 -10 -10 -10 -10 -10
-13 -12 -12 -12 -12 -12 -12 -12 -12 -12 -12 -12 -12 -13 -13 -13 -13 -13 -13 -12 -12 -12 -11 -11 -11 -11 -10 -10 -10 -10 -10 -10 -10 -10 -10 -10 -10 -10 -10 -10 -10 -10 -10 -10 -10 -10 -10
-12 -13 -13 -12 -12 -12 -12 -12 -12 -12 -12 -12 -12 -12 -12 -12 -12 -12 -12 -12 -12 -12 -12 -11 -11 -11 -11 -10 -10 -10 -10 -10 -10 -10 -10 -10 -10 -10 -10 -10 -10 -10 -10 -10 -10 -10 -10
-13 -12 -12 -13 -12 -12 -12 -12 -12 -12 -12 -12 -12 -12 -12 -12 -12 -12 -12 -12 -12 -12 -11 -11 -11 -11 -11 -11 -11 -11 -11 -11 -10 -10 -10 -10 -10 -10 -10 -10 -10 -10 -10 -10 -10 -10 -10
-13 -13 -13 -12 -12 -12 -12 -12 -12 -12 -12 -12 -12 -12 -12 -12 -12 -12 -12 -12 -12 -11 -11 -11 -11 -11 -11 -11 -11 -10 -11 -10 -10 -10 -10 -11 -11 -11 -11 -11 -11 -11 -11 -11 -10 -10 -10
-13 -13 -13 -13 -13 -12 -12 -13 -12 -12 -12 -12 -12 -12 -12 -12 -12 -12 -12 -12 -12 -11 -11 -11 -11 -11 -11 -11 -11 -11 -11 -11 -11 -11 -11 -11 -11 -11 -11 -11 -11 -11 -11 -11 -10 -10 -10
-13 -13 -13 -13 -13 -13 -13 -12 -12 -12 -12 -12 -13 -12 -12 -12 -12 -12 -12 -12 -12 -12 -12 -11 -11 -11 -11 -11 -11 -11 -11 -11 -11 -11 -11 -11 -11 -11 -11 -11 -11 -11 -11 -11 -10 -10 -11
-13 -13 -13 -13 -13 -13 -13 -13 -12 -12 -12 -12 -12 -13 -12 -12 -12 -12 -12 -12 -12 -12 -12 -12 -12 -12 -12 -12 -12 -12 -12 -12 -12 -12 -12 -12 -12 -12 -11 -11 -11 -11 -11 -12 -11 -11 -11
-13 -13 -13 -13 -14 -14 -13 -14 -13 -13 -13 -12 -13 -13 -13 -13 -13 -13 -13 -13 -12 -12 -12 -12 -12 -12 -12 -12 -12 -12 -12 -12 -12 -12 -12 -12 -12 -12 -12 -12 -12 -12 -12 -12 -12 -12 -12
-13 -13 -13 -13 -14 -14 -13 -13 -14 -14 -13 -13 -13 -13 -13 -13 -13 -13 -13 -13 -13 -13 -12 -12 -12 -12 -12 -12 -13 -13 -13 -13 -13 -13 -13 -13 -13 -13 -13 -13 -13 -13 -13 -13 -13 -13 -12
-14 -14 -14 -14 -14 -14 -14 -14 -13 -14 -14 -14 -13 -13 -13 -13 -13 -13 -13 -13 -13 -13 -13 -13 -13 -13 -13 -13 -12 -12 -12 -13 -13 -13 -13 -13 -13 -13 -13 -13 -13 -13 -13 -13 -13 -13 -13
-14 -14 -14 -14 -14 -14 -14 -14 -13 -13 -14 -14 -14 -14 -14 -14 -14 -13 -14 -13 -13 -13 -13 -13 -13 -13 -13 -14 -14 -14 -13 -13 -13 -13 -13 -13 -13 -13 -13 -13 -13 -13 -13 -14 -14 -14 -14
-15 -14 -14 -14 -14 -14 -14 -14 -14 -14 -13 -14 -14 -14 -14 -14 -14 -14 -14 -14 -14 -14 -14 -13 -13 -13 -14 -14 -14 -14 -14 -14 -14 -14 -13 -14 -13 -14 -13 -14 -13 -14 -14 -14 -14 -14 -14
-15 -15 -15 -15 -15 -15 -15 -14 -14 -14 -14 -14 -14 -14 -14 -14 -14 -14 -14 -14 -14 -14 -14 -14 -14 -14 -14 -14 -14 -14 -14 -14 -14 -14 -14 -14 -14 -14 -14 -14 -13 -13 -14 -14 -14 -14 -14
-16 -15 -15 -15 -15 -15 -15 -15 -15 -14 -14 -14 -14 -14 -14 -14 -14 -14 -14 -14 -14 -14 -14 -14 -14 -14 -14 -14 -14 -14 -14 -14 -14 -14 -14 -14 -14 -14 -14 -14 -14 -14 -14 -14 -14 -15 -14
-15 -15 -16 -15 -16 -15 -15 -15 -15 -15 -15 -15 -14 -14 -14 -14 -15 -15 -14 -15 -15 -14 -14 -15 -15 -15 -15 -14 -15 -15 -15 -14 -14 -14 -14 -14 -14 -14 -14 -14 -14 -14 -14 -15 -15 -16 -15
-16 -16 -16 -16 -16 -16 -16 -15 -16 -16 -15 -15 -15 -14 -14 -14 -14 -14 -15 -15 -15 -15 -15 -15 -15 -15 -15 -15 -15 -15 -15 -15 -15 -14 -15 -14 -15 -15 -14 -14 -15 -14 -15 -15 -16 -16 -16
-17 -16 -16 -16 -16 -16 -16 -16 -15 -15 -16 -15 -15 -15 -15 -14 -15 -15 -14 -15 -15 -15 -15 -15 -15 -15 -15 -15 -15 -15 -15 -15 -15 -15 -15 -15 -15 -16 -15 -15 -15 -15 -15 -15 -16 -17 -17
-19 -19 -18 -18 -17 -16 -16 -16 -16 -15 -16 -16 -16 -16 -16 -15 -15 -16 -16 -16 -16 -16 -15 -16 -16 -16 -16 -16 -16 -16 -16 -16 -15 -15 -16 -17 -17 -17 -17 -16 -16 -17 -16 -16 -17 -17 -17
-20 -20 -20 -19 -19 -18 -18 -17 -17 -17 -16 -16 -16 -16 -16 -16 -16 -17 -17 -16 -16 -16 -16 -16 -16 -16 -16 -16 -16 -15 -16 -15 -16 -16 -16 -17 -18 -18 -18 -18 -17 -17 -17 -18 -19 -19 -18
-21 -20 -20 -20 -20 -19 -19 -19 -18 -18 -18 -17 -18 -18 -18 -17 -16 -17 -17 -17 -17 -17 -17 -17 -17 -17 -16 -17 -17 -17 -17 -17 -17 -17 -17 -18 -18 -18 -19 -19 -18 -17 -18 -18 -20 -19 -20
-22 -21 -21 -20 -20 -20 -20 -20 -20 -20 -19 -19 -18 -18 -18 -18 -18 -18 -18 -18 -18 -18 -18 -17 -18 -17 -18 -17 -18 -18 -18 -18 -18 -18 -18 -19 -19 -19 -20 -20 -19 -19 -19 -20 -20 -21 -21
-22 -22 -22 -21 -21 -20 -20 -20 -20 -20 -20 -20 -20 -20 -19 -19 -19 -19 -19 -19 -19 -19 -19 -19 -19 -19 -19 -19 -19 -19 -19 -19 -19 -19 -19 -20 -20 -20 -20 -20 -20 -20 -21 -21 -21 -21 -23
Height
5788 5781 5774 5766 5759 5751 5745 5739 5731 5724 5718 5713 5709 5706 5704 5703 5702 5704 5705 5709 5715 5723 5729 5738 5747 5758 5768 5778 5786 5792 5800 5807 5813 5817 5821 5825 5830 5833 5836 5839 5841 5843 5844 5845 5845 5844 5844
5792 5786 5779 5772 5765 5759 5751 5747 5740 5734 5728 5724 5721 5718 5715 5714 5714 5715 5718 5723 5729 5734 5740 5747 5756 5765 5774 5783 5789 5795 5801 5808 5812 5817 5821 5825 5829 5832 5835 5837 5839 5840 5841 5842 5842 5840 5840
5796 5790 5784 5778 5772 5765 5759 5753 5750 5743 5738 5733 5729 5728 5726 5725 5727 5728 5731 5735 5740 5745 5751 5758 5765 5773 5780 5787 5792 5797 5803 5809 5813 5817 5821 5824 5827 5831 5833 5835 5836 5837 5839 5838 5837 5836 5836
5800 5794 5789 5783 5779 5773 5767 5761 5756 5753 5749 5744 5740 5737 5737 5737 5738 5740 5743 5746 5750 5755 5760 5767 5773 5780 5785 5790 5794 5799 5805 5810 5814 5818 5821 5824 5826 5830 5831 5832 5834 5834 5835 5834 5833 5832 5831
5802 5799 5794 5789 5783 5779 5774 5769 5764 5760 5757 5754 5751 5747 5746 5746 5748 5750 5753 5757 5761 5765 5769 5775 5780 5785 5789 5793 5797 5802 5806 5811 5814 5817 5820 5823 5825 5827 5828 5829 5830 5829 5829 5829 5828 5827 5826
5803 5800 5797 5793 5789 5785 5780 5776 5773 5768 5765 5763 5760 5758 5756 5755 5756 5759 5761 5765 5769 5772 5776 5780 5784 5789 5792 5796 5799 5803 5807 5811 5813 5816 5819 5820 5822 5824 5825 5825 5825 5825 5824 5824 5823 5823 5821
5804 5801 5799 5796 5793 5790 5786 5782 5779 5776 5772 5770 5768 5766 5765 5764 5764 5765 5768 5771 5776 5779 5781 5784 5787 5790 5793 5796 5800 5804 5807 5810 5812 5814 5815 5817 5819 5819 5820 5820 5820 5820 5819 5818 5817 5817 5816
5805 5803 5800 5797 5796 5794 5790 5786 5784 5782 5780 5777 5775 5773 5772 5771 5771 5772 5773 5775 5778 5782 5784 5786 5789 5791 5793 5796 5799 5802 5805 5808 5809 5810 5812 5814 5814 5815 5815 5815 5815 5815 5814 5813 5812 5811 5811
5805 5802 5800 5798 5796 5794 5793 5791 5787 5786 5784 5783 5781 5779 5778 5777 5776 5777 5779 5780 5781 5783 5785 5788 5789 5791 5794 5796 5798 5800 5803 5804 5806 5807 5808 5809 5810 5810 5810 5809 5809 5809 5808 5807 5807 5806 5805
5802 5801 5799 5797 5796 5794 5793 5792 5790 5788 5787 5785 5784 5783 5782 5782 5783 5781 5781 5782 5783 5784 5786 5789 5790 5792 5794 5795 5797 5798 5800 5802 5802 5803 5804 5804 5804 5804 5804 5804 5803 5803 5802 5802 5801 5800 5799
5800 5797 5796 5796 5794 5793 5792 5792 5790 5789 5788 5787 5786 5785 5784 5783 5782 5783 5783 5783 5783 5784 5786 5788 5789 5790 5791 5794 5795 5796 5796 5797 5797 5798 5800 5800 5799 5799 5799 5798 5798 5798 5796 5795 5793 5792 5791
5794 5796 5794 5791 5791 5790 5791 5789 5789 5788 5787 5787 5786 5785 5784 5784 5784 5784 5783 5783 5784 5786 5785 5787 5787 5788 5789 5790 5791 5792 5793 5793 5794 5794 5794 5793 5793 5793 5793 5793 5792 5790 5789 5787 5786 5785 5783
5789 5788 5790 5789 5787 5786 5786 5787 5787 5786 5786 5785 5785 5784 5783 5783 5783 5783 5782 5782 5783 5783 5785 5785 5785 5785 5786 5787 5788 5788 5789 5789 5789 5789 5789 5788 5788 5787 5787 5786 5784 5783 5781 5779 5778 5776 5775
5782 5783 5782 5784 5784 5782 5781 5781 5782 5782 5781 5782 5782 5781 5780 5780 5780 5781 5781 5781 5781 5780 5781 5781 5782 5782 5783 5783 5783 5783 5783 5784 5783 5783 5782 5782 5782 5781 5780 5778 5776 5774 5773 5771 5767 5766 5764
5774 5775 5775 5775 5777 5777 5776 5776 5775 5776 5777 5777 5777 5777 5777 5776 5776 5775 5776 5777 5777 5777 5777 5777 5777 5777 5778 5778 5778 5777 5777 5777 5776 5776 5775 5773 5773 5772 5771 5770 5768 5766 5764 5762 5758 5756 5753
5764 5765 5768 5768 5768 5770 5769 5769 5769 5769 5769 5770 5771 5771 5771 5771 5770 5770 5771 5771 5771 5771 5771 5772 5771 5771 5771 5771 5771 5770 5769 5770 5769 5767 5766 5765 5762 5763 5762 5761 5760 5757 5756 5754 5751 5747 5745
5752 5753 5755 5758 5759 5760 5761 5761 5762 5761 5761 5762 5763 5764 5764 5764 5765 5765 5764 5764 5764 5764 5764 5765 5764 5765 5765 5765 5764 5762 5762 5762 5760 5759 5757 5756 5755 5757 5754 5753 5751 5750 5748 5747 5744 5742 5737
5739 5741 5742 5745 5747 5749 5750 5751 5752 5754 5753 5753 5754 5755 5756 5755 5757 5755 5756 5756 5757 5756 5756 5756 5756 5756 5756 5755 5756 5756 5756 5755 5755 5753 5751 5749 5746 5746 5745 5743 5742 5741 5740 5738 5735 5733 5730
5723 5726 5729 5731 5734 5737 5739 5740 5741 5742 5744 5743 5743 5744 5746 5747 5747 5747 5747 5747 5747 5749 5749 5748 5748 5748 5748 5747 5746 5745 5744 5744 5743 5742 5741 5741 5739 5738 5735 5736 5734 5732 5731 5729 5726 5723 5721
5705 5709 5714 5716 5720 5722 5725 5728 5729 5730 5731 5732 5732 5733 5735 5735 5736 5737 5737 5737 5738 5738 5738 5739 5739 5738 5739 5738 5737 5734 5736 5734 5733 5731 5730 5728 5727 5728 5727 5724 5722 5722 5719 5716 5713 5710 5710
5687 5690 5693 5697 5702 5707 5709 5712 5715 5718 5718 5719 5720 5720 5722 5723 5725 5725 5726 5727 5728 5727 5728 5729 5728 5729 5728 5727 5727 5726 5725 5725 5725 5723 5721 5718 5717 5717 5716 5714 5710 5708 5706 5701 5699 5699 5693
5665 5670 5676 5679 5684 5688 5692 5695 5698 5701 5705 5706 5706 5708 5709 5711 5712 5714 5713 5715 5716 5716 5716 5716 5718 5719 5716 5716 5716 5714 5714 5712 5711 5711 5709 5707 5705 5704 5703 5701 5699 5697 5693 5690 5688 5684 5678
5642 5648 5653 5660 5664 5667 5672 5675 5680 5682 5686 5689 5691 5693 5694 5697 5699 5701 5701 5702 5703 5704 5704 5705 5704 5704 5704 5705 5703 5702 5700 5700 5699 5697 5696 5694 5692 5689 5687 5683 5681 5681 5679 5677 5674 5669 5664
5618 5624 5632 5637 5643 5648 5651 5655 5661 5664 5667 5670 5674 5677 5679 5681 5683 5685 5688 5689 5689 5690 5690 5691 5691 5691 5693 5691 5690 5689 5688 5686 5685 5684 5681 5679 5678 5674 5672 5668 5665 5662 5659 5654 5653 5651 5644
5599 5604 5610 5616 5622 5626 5632 5634 5640 5645 5649 5653 5655 5658 5662 5665 5668 5670 5671 5673 5674 5674 5675 5676 5676 5677 5676 5676 5676 5674 5674 5673 5672 5670 5669 5666 5661 5657 5655 5651 5653 5648 5642 5639 5634 5630 5627
5583 5589 5593 5598 5603 5609 5613 5618 5622 5627 5632 5635 5637 5639 5644 5647 5652 5655 5655 5656 5657 5658 5659 5661 5661 5661 5661 5659 5658 5659 5657 5656 5656 5656 5654 5651 5646 5643 5639 5635 5633 5631 5624 5621 5614 5611 5610
5567 5572 5578 5583 5587 5593 5597 5601 5606 5610 5613 5616 5619 5623 5626 5630 5633 5637 5638 5641 5641 5642 5643 5646 5645 5645 5645 5644 5643 5642 5642 5641 5639 5638 5638 5633 5629 5626 5622 5617 5618 5614 5609 5606 5601 5597 5588
5550 5556 5561 5567 5572 5578 5582 5587 5591 5593 5597 5600 5604 5606 5609 5612 5616 5618 5621 5624 5626 5626 5627 5630 5630 5630 5629 5628 5627 5626 5625 5625 5624 5623 5621 5618 5614 5612 5607 5601 5597 5597 5590 5588 5581 5574 5567
5532 5538 5544 5550 5553 5560 5565 5571 5577 5580 5582 5585 5589 5590 5594 5596 5601 5602 5604 5607 5609 5611 5612 5612 5613 5613 5612 5612 5612 5610 5610 5610 5609 5608 5606 5604 5601 5597 5593 5587 5581 5577 5572 5566 5561 5559 5550
Wind_Speed
33 35 34 37 38 39 41 31 32 32 35 35 33 31 30 30 33 34 38 37 39 43 46 45 44 41 40 39 35 32 29 26 23 22 21 24 26 22 18 16 14 13 13 13 15 20 22
31 32 34 33 36 36 38 38 30 29 32 35 37 36 37 37 38 39 40 41 40 41 42 42 39 37 35 32 30 28 26 23 21 19 19 23 22 19 16 15 14 13 13 15 20 22 23
29 31 31 33 32 34 33 36 35 28 27 30 35 38 39 40 40 39 39 40 40 39 39 37 35 33 30 28 25 23 21 19 17 17 18 19 18 17 16 14 14 14 15 20 23 23 24
26 28 30 30 31 30 31 31 33 31 27 27 28 34 37 39 40 40 39 39 37 36 36 34 32 30 28 24 22 19 17 15 14 14 14 15 15 15 14 14 15 17 19 24 24 24 24
22 25 25 27 27 29 28 28 28 29 28 24 24 27 33 37 39 39 38 37 35 34 34 33 30 28 25 23 20 17 15 13 13 12 13 13 13 15 14 16 17 21 24 26 25 25 26
19 21 22 22 24 25 26 26 24 24 25 24 22 22 26 31 35 37 37 35 34 33 32 30 29 26 22 21 18 15 12 12 12 11 11 11 13 14 15 19 22 24 26 26 26 26 26
17 18 20 18 19 22 23 22 23 21 20 21 21 20 19 22 27 31 32 33 31 29 27 25 25 22 20 18 14 11 12 11 11 11 12 14 16 19 21 24 25 27 26 27 26 26 24
22 17 15 16 16 16 18 19 19 19 17 16 16 15 17 17 19 20 24 27 26 25 24 22 20 19 18 17 14 13 13 14 15 16 17 19 22 22 23 23 24 26 26 27 25 26 26
22 20 14 12 14 16 14 15 15 15 14 13 12 13 11 12 16 17 18 19 20 19 19 19 17 17 17 16 16 16 17 17 19 19 20 21 21 22 23 24 26 26 26 25 26 27 29
20 21 17 14 10 11 13 12 11 11 10 9 9 9 9 10 10 14 15 14 13 14 14 13 10 11 12 13 13 14 16 16 17 18 21 22 23 24 25 25 25 25 26 27 28 30 32
23 21 17 16 15 11 11 14 12 10 8 7 4 4 5 6 7 8 9 9 11 12 12 11 11 11 11 12 14 15 17 18 20 21 22 22 23 23 24 25 27 28 28 29 31 33 35
25 24 22 17 15 16 13 11 13 13 10 8 6 5 2 2 2 4 7 8 8 10 9 10 11 11 12 13 15 16 16 18 20 22 22 23 24 25 27 29 30 30 32 33 36 37 39
30 27 25 23 18 15 17 14 12 14 14 13 11 10 9 9 8 7 7 8 9 9 10 11 12 13 14 15 17 19 20 21 22 24 25 27 28 29 31 32 33 35 37 40 41 41 41
36 32 29 29 26 21 18 19 18 17 16 15 15 15 14 14 14 13 14 14 13 13 13 14 13 15 17 18 20 22 23 25 27 28 30 32 33 34 35 36 37 38 40 40 42 41 40
40 38 36 32 30 27 24 20 21 21 21 19 18 19 20 18 18 19 20 19 21 20 20 20 21 22 22 23 24 24 25 26 27 30 32 34 35 34 34 35 36 36 36 36 37 37 37
45 42 42 40 35 32 29 28 25 23 25 25 24 23 22 24 23 23 23 24 25 26 26 26 27 28 28 28 28 27 28 27 29 30 33 34 36 34 35 36 36 35 34 33 32 35 36
51 48 45 45 43 36 33 31 31 28 27 26 29 29 28 27 28 29 28 28 29 30 30 30 30 31 32 33 33 33 32 31 30 29 28 30 33 32 35 33 33 32 32 33 36 37 41
56 53 52 49 48 44 38 36 33 35 33 31 32 32 34 33 31 32 32 33 33 32 32 33 33 32 32 32 33 36 35 36 35 35 34 33 33 32 32 32 34 35 35 36 39 44 46
61 59 58 55 54 50 46 41 38 37 39 38 37 36 35 37 36 35 35 35 37 36 37 36 35 34 35 36 38 37 36 36 38 39 40 39 39 37 38 37 38 39 40 42 45 47 49
65 65 62 62 60 56 52 48 45 41 42 43 41 41 38 39 39 38 36 37 36 37 39 41 40 38 37 38 38 41 41 41 41 40 41 44 44 42 42 45 47 46 47 49 50 52 50
77 74 71 69 63 60 57 53 50 48 45 45 45 43 41 41 40 40 39 38 37 36 38 39 40 38 39 40 40 42 43 44 43 44 45 47 47 45 45 46 50 53 53 56 56 54 58
78 76 75 73 70 67 65 62 59 56 52 49 50 46 44 43 43 42 43 41 40 41 41 39 40 42 42 42 42 43 40 42 44 44 46 48 51 50 51 52 54 55 56 57 58 59 62
85 81 78 78 75 72 72 71 68 65 60 55 55 51 49 46 46 46 46 45 44 45 45 44 44 46 46 45 45 45 46 46 47 48 49 52 53 54 56 58 59 61 61 61 62 62 62
77 81 82 80 80 75 76 75 72 69 64 59 58 56 54 53 50 49 49 49 49 49 50 48 48 49 49 51 50 51 51 51 52 51 53 55 55 58 60 62 64 68 68 68 67 64 63
58 59 61 62 64 68 68 70 66 66 63 60 60 59 59 58 56 55 55 55 54 54 55 54 53 53 53 54 56 56 56 57 55 56 55 56 59 60 62 65 66 66 70 69 68 69 67
56 55 52 53 52 54 59 62 61 60 63 61 63 62 62 63 62 60 60 59 60 60 60 60 58 59 59 58 58 60 60 62 61 61 59 58 58 59 62 65 67 67 68 66 67 66 70
59 58 54 50 49 50 50 51 52 51 55 59 60 60 61 64 65 65 65 64 64 64 66 64 63 63 63 62 62 62 60 61 61 61 61 61 61 62 62 63 65 68 68 68 68 71 72
64 63 61 58 54 52 50 48 45 48 49 54 55 59 61 64 64 62 63 64 65 65 65 64 63 62 60 61 60 60 59 60 58 59 58 59 60 61 62 65 67 68 69 69 70 70 73
67 68 65 63 63 61 58 56 51 48 48 49 48 51 52 54 55 56 56 55 55 55 54 54 54 54 55 55 55 56 56 56 55 56 57 58 59 60 63 65 67 68 68 70 72 73 72
Wind_Direction
25 26 29 31 27 37 37 42 55 65 68 69 72 78 83 96 103 111 112 117 131 136 136 143 148 155 163 166 169 171 178 187 198 200 200 192 194 199 204 213 220 231 242 256 269 264 266
27 25 29 32 33 31 40 38 52 60 76 80 81 86 91 95 101 105 110 119 124 127 132 137 144 152 154 157 163 167 176 187 195 197 198 194 198 209 218 223 231 240 253 264 265 265 273
26 26 27 33 35 35 37 43 42 58 69 78 84 85 88 91 96 103 110 114 117 122 127 134 140 142 146 147 155 160 173 181 190 192 194 199 205 220 226 233 242 249 253 263 263 271 276
18 25 28 27 35 39 37 41 46 46 63 82 90 96 96 97 100 102 104 107 113 118 124 129 133 137 138 140 143 151 164 172 184 185 191 201 209 226 236 246 249 252 258 261 267 273 277
7 13 24 31 31 36 42 41 44 49 52 66 83 97 104 105 103 103 104 107 112 117 123 128 132 130 130 133 137 146 158 171 179 184 197 207 218 233 246 252 255 257 261 267 271 276 280
359 2 11 24 32 35 39 44 46 49 52 60 75 91 105 112 113 113 113 115 119 122 127 130 131 129 132 134 135 142 154 172 182 194 209 221 233 244 251 253 255 259 266 273 276 281 279
352 354 359 12 23 31 36 39 46 51 59 60 66 80 96 110 121 124 126 127 126 128 131 136 138 135 140 140 141 157 172 185 193 205 222 233 239 244 248 254 261 268 272 275 280 280 275
1 344 351 357 7 16 24 33 37 45 56 68 72 75 91 108 122 130 137 139 141 140 146 146 149 149 153 159 165 182 192 201 210 218 229 238 243 250 257 264 269 272 275 277 277 275 276
340 346 337 341 348 353 6 15 26 33 39 58 75 95 94 108 119 126 135 143 149 153 158 160 160 167 173 177 188 200 210 219 228 236 243 250 255 261 265 269 271 271 272 273 275 276 279
323 337 326 329 327 329 339 355 3 11 23 34 53 82 106 121 133 142 145 149 154 159 162 166 173 182 197 206 218 225 233 239 244 250 253 257 261 265 266 267 268 269 271 273 277 279 281
308 321 324 314 316 313 310 322 336 348 340 354 12 54 79 112 135 149 156 162 169 176 177 185 193 204 214 221 230 236 243 249 252 255 256 259 261 263 265 266 268 269 272 276 278 280 282
294 303 313 306 306 307 303 296 309 319 331 308 304 282 260 195 181 179 183 184 183 183 194 204 210 218 227 233 240 246 251 254 256 258 260 261 262 264 266 268 271 274 278 280 280 282 284
284 288 296 301 294 296 297 292 291 299 308 308 286 275 266 250 246 238 219 217 217 216 219 225 225 231 235 241 246 250 253 255 258 260 262 264 265 267 269 271 274 277 280 282 282 284 286
278 279 283 292 289 286 282 286 285 285 287 288 288 277 263 260 250 250 254 251 244 238 241 245 247 251 260 262 261 263 266 269 271 272 271 271 270 272 275 277 278 279 281 282 284 286 288
270 275 278 280 284 280 284 281 279 275 277 278 278 278 275 264 255 253 251 252 254 251 248 250 251 254 259 264 266 267 269 271 273 273 273 274 274 274 276 277 279 279 279 280 281 281 284
265 267 271 275 278 275 273 278 280 277 269 268 269 270 272 272 264 260 258 253 255 256 258 259 260 259 259 262 263 261 264 271 275 278 274 272 274 274 275 277 279 279 280 281 282 284 286
262 263 265 270 272 271 268 269 274 276 273 269 268 265 264 267 271 265 260 260 259 260 260 260 260 262 263 263 260 260 265 268 273 275 277 278 276 278 278 281 281 283 283 282 283 284 285
260 262 264 265 268 269 265 263 266 272 273 269 269 271 264 262 263 267 268 262 260 262 262 265 269 268 268 269 271 273 276 278 277 276 276 278 279 281 278 278 279 279 280 281 283 286 287
260 260 262 264 265 267 266 263 262 264 268 269 267 267 264 263 262 265 266 267 262 263 266 266 266 271 273 273 271 269 272 277 281 281 280 279 281 284 283 283 284 285 286 286 288 288 289
257 259 261 263 265 268 267 264 262 262 265 267 264 264 264 262 262 262 264 266 267 262 262 266 266 267 272 274 276 277 276 273 274 278 280 280 280 284 285 287 286 286 287 287 287 287 289
258 259 261 265 265 265 264 263 263 262 261 262 261 260 261 259 260 261 263 265 266 265 265 266 265 263 266 270 271 274 280 281 280 280 279 279 281 281 281 281 281 284 285 286 285 285 286
258 259 259 259 260 261 264 262 261 261 263 263 258 256 258 259 259 259 261 261 263 265 266 265 267 265 265 269 271 275 271 275 278 280 278 279 281 282 282 281 281 281 280 281 284 286 287
256 257 257 259 260 262 262 262 263 262 260 257 255 251 253 256 257 260 261 262 263 264 264 265 264 265 266 269 270 271 273 274 276 277 278 280 281 282 282 283 284 284 285 286 286 287 287
253 256 257 258 260 258 261 262 259 258 259 255 252 250 250 253 254 256 259 262 264 265 267 266 268 269 270 270 271 273 274 275 276 277 279 280 280 280 282 283 284 288 289 289 290 291 291
249 252 254 253 255 258 258 259 257 256 254 252 247 246 249 251 252 253 257 259 260 264 266 268 270 271 272 272 273 275 276 278 278 278 279 280 282 282 283 284 287 287 290 290 291 291 291
246 249 249 251 252 253 254 255 256 255 254 254 246 243 246 249 252 254 255 257 260 262 264 267 270 272 273 275 275 277 278 280 281 281 281 280 280 282 284 285 287 288 289 291 291 290 291
247 246 247 247 249 250 250 251 253 255 254 251 252 255 256 255 254 254 255 257 260 263 265 267 271 273 274 276 277 277 278 279 278 280 281 282 282 283 284 285 285 287 288 289 289 290 290
252 252 250 247 247 247 248 247 249 252 255 258 258 258 258 258 258 258 260 262 264 267 269 271 272 272 273 273 275 276 277 278 279 280 282 282 282 283 284 284 285 289 289 288 288 289 289
249 251 254 254 250 247 247 247 247 250 254 255 257 260 261 261 262 262 263 264 266 268 269 269 270 271 272 273 273 274 276 278 280 281 280 280 281 282 282 284 285 285 285 286 287 287 289